map of OHD home
Great Circle Mapper logo
OHD - Airport
Location
City:  Ohrid, Republic of Macedonia
Name:Ohrid St. Paul the Apostle Airport
ICAO / IATA:LWOH / OHD

Details
Type:Airport (Aerodrome, Airfield)
Use:Public/Civil
Latitude:4110'48"N (41.179956)
Longitude:2044'32"E (20.742325)
Datum:WGS 1984
Elevation:2313 ft (705 m)
Variation:4.09E (WMM2015 magnetic declination)
0.10 annual change
Runways:1
Longest:8366 × 140 ft (2550 × 42.5 m), paved

Time
Time Zone:UTC+1 (DST+2)
Local Time:

Weather
METAR:LWOH 301400Z 22008KT 9999 -RA FEW020 BKN035 BKN110 10/01 Q1008
TAF:LWOH 302030Z 3021/3121 34005KT 9999 SCT040 BKN090
TEMPO 3100/3103 7000 -RA SCT020 BKN035 OVC070
BECMG 3106/3108 SCT050

Related Locations
Nearby:
Farthest:CHT: 11545 mi / 18580 km
Waitangi [Tuuta], Chatham Islands, NZ

Find:

   beyond  
but within

Other Information
Maps:
NOTAMs:
Links:
Sources:

  
flag of Republic of Macedonia   

Sectional Chart

Flight Planning
at skyvector.com

Satellite Image

Google Maps Satellite View

 

Copyright © 2004-2015 Karl L. Swartz. All rights reserved.
The Great Circle Mapper name and logo are trademarks of the Great Circle Mapper.
All other trademarks mentioned herein belong to their respective owners.
Please see credits for attibutions and further copyright information.

  Follow gcmap on Facebook Follow gcmap on Twitter Follow gcmap on Google+

hCard Microformat

Geo Microformat